STARLINK-32427, 61848

Orbit data source: Space-Track

STARLINK-32427, 61848 is a payload satellite owned by SpaceX/Seattle (US) in LEO that was launched on Thu, 07 Nov 2024 UTC via an FALCON 9 launch vehicle from the Air Force Eastern Test Range (AFETR). Payload-class satellites include a variety of spacecraft equipped with specific instruments for various scientific and technological missions. These include communications satellites like Starlink; space stations such as the ISS; scientific satellites like the Hubble; Earth observation satellites from companies like Planet Labs, Umbra, and HawkEye 360; GPS; miniature CubeSats for education and research; and military/defense satellites.

Loading next visibility...
Identifier
61848, 2024-202D
Orbit
LEO
Country
Flag of USUS
Related business
Manufacturer
SpaceX/Seattle
Mission
Operational spacecraft
Bus & Motor
STARLINK V2M, Unknown motor
Mass
730 kg wet, ~700 kg dry
Launch date (UTC)
2024-11-07 (1 year ago)
Launch vehicle
FALCON 9
Launch site
Air Force Eastern Test Range (AFETR)
Object type
Payload
Rocket body
Debris
Shape & HBR
Unknown shape, 17.7 m
Radar Cross Section
Large (>1 m²)

Expand to show TLE details & history
Last TLE update: 12 hours ago

TLE from 12 hours ago
0 STARLINK-32427
1 61848U 24202D   26035.06621896  .00000155  00000-0  15156-4 0  9994
2 61848  42.9999  56.7755 0000633 244.6312 115.4475 15.27574372 70311
Epoch: 2026-02-04T01:35Z
TLE epoch observation values (Epoch: 2026-02-04T01:35:21.318Z)
Latitude
0.00006°
Longitude
-101.3014°
Altitude
483.028 km
Speed
7.626 km/s
True Right ascension
03h 47m 06s
True Declination
0° 00' 00"
Sunlit
Object was in daylight at epoch
Visualization orbit readout
Latitude
Unknown
Longitude
Unknown
Altitude
Unknown
Speed
Unknown
Apparent Right ascension
Unknown
Apparent Declination
Unknown
Sunlit
N/A
Visualization observer readout
Local Sidereal Time
15:53:11
Azimuth
Unknown
Elevation
Unknown
Doppler factor
Unknown
Orbital elements
Apogee altitude
485.446 km
Perigee altitude
484.577 km
Semi-major axis
6,863.148 km
Eccentricity
0.00006
Inclination
42.9999°
RAAN
56.7755°
Arg. of periapsis
244.6312°
True anomaly
115.45405°
Mean anomaly
115.4475°
Eccentric anomaly
115.45077°
Mean motion
3.81732 °/min
Orbital period
94.31 mins
BSTAR
0.000015156
Loading maneuver chart data...
Computing Atmospheric mass density...
Loading historical data...
Loading historical data...
Loading historical data...
Loading historical data...
Loading historical data...
Loading historical data...
Loading historical data...

Documentation

Showing up to 5 results
|